Tracking 19286 objects as of 19-Nov-2018
HD Live streaming from Space Station
objects crossing your sky now

GORIZONT 32

Track GORIZONT 32 now!
GORIZONT 32 is classified as:


NORAD ID: 23880
Int'l Code: 1996-034A
Perigee: 35,758.6 km
Apogee: 35,871.4 km
Inclination: 14.3 °
Period: 1,437.2 minutes
Semi major axis: 42186 km
RCS: 17.7827 m2 (large)
Launch date: May 25, 1996
Source: Commonwealth of Independent States (former USSR) (CIS)
Launch site: TYURATAM MISSILE AND SPACE COMPLEX (TTMTR)

Telecommunications; augment television channels available to the people of Siberia.
aabbcc
Your satellite tracking list
Your tracking list is empty




NASA's NSSDC Master Catalog

Two Line Element Set (TLE):
1 23880U 96034A   18321.95571756 -.00000254 +00000-0 +00000-0 0  9995
2 23880 014.2729 017.5167 0013366 296.4362 053.0282 01.00195889082311
Source of the keplerian elements: AFSPC